Flag for Tunisia Weather for the Past 2 Weeks in Houmt Souk (Djerba), Tunisia

Now
59 °F

Passing clouds.


Feels Like: 59 °F
Forecast: 52 / 61 °F
Wind: 5 mph from West

Location: Djerba Mellita

Current Time: Feb 7, 2016 at 11:57:29 PM

Latest Report: Feb 7, 2016 at 11:00 PM


Visibility: 5 mi

Pressure: 30.09 "Hg

Humidity: 63%

Dew point: 46 °F

Location of Houmt Souk (Djerba)Location

Historic Weather in Houmt Souk (Djerba) — Graph

°F

Houmt Souk (Djerba) Temperature Yesterday

Maximum temperature yesterday: 63 °F (at 12:00 PM)
Minimum temperature yesterday: 43 °F (at 7:00 AM)
Average temperature yesterday: 54 °F

High & Low Weather Summary for the Past Weeks

 TemperatureHumidityPressure
High81 °F (Jan 30, 8:30 AM)100% (Jan 28, 2:00 AM)30.57 "Hg (Jan 28, 2:00 AM)
Low43 °F (Feb 6, 7:00 AM)28% (Feb 7, 2:30 PM)30.09 "Hg (Feb 7, 3:30 PM)
Average57 °F71%30.39 "Hg
* Reported Jan 23 10:00 PM — Feb 7 10:30 PM, Houmt Souk (Djerba), Weather by CustomWeather, © 2016

Note: Actual official high and low records may vary slightly from our data, if they occured in-between our weather recording intervals... More about our weather records

Advertising

Houmt Souk (Djerba) Weather History for the Previous 24 Hours

 ConditionsComfort  
Time TempWeatherWind HumidityBarometerVisibility
10:30 PM
Sun, Feb 7
59 °FPassing clouds.3 mph51%30.09 "Hg5 mi
10:00 PM59 °FPassing clouds.6 mph48%30.09 "Hg5 mi
9:30 PM59 °FPassing clouds.7 mph51%30.09 "Hg5 mi
9:00 PM59 °FPassing clouds.6 mph48%30.09 "Hg5 mi
8:30 PM59 °FPassing clouds.5 mph45%30.09 "Hg5 mi
8:00 PM59 °FPassing clouds.3 mph55%30.09 "Hg5 mi
7:30 PM61 °FPassing clouds.7 mph59%30.09 "Hg5 mi
7:00 PM63 °FPassing clouds.9 mph49%30.09 "Hg5 mi
6:30 PM63 °FPassing clouds.12 mph49%30.09 "Hg5 mi
6:00 PM63 °FClear.10 mph52%30.09 "Hg5 mi
5:30 PM63 °FClear.8 mph49%30.09 "Hg5 mi
5:00 PM64 °FClear.10 mph43%30.09 "Hg5 mi
4:30 PM64 °FClear.10 mph46%30.09 "Hg5 mi
4:00 PM64 °FScattered clouds.10 mph46%30.09 "Hg5 mi
3:30 PM66 °FPassing clouds.9 mph37%30.09 "Hg5 mi
3:00 PM66 °FPassing clouds.9 mph30%30.12 "Hg5 mi
2:30 PM66 °FPassing clouds.9 mph28%30.12 "Hg5 mi
2:00 PM66 °FPassing clouds.10 mph30%30.12 "Hg5 mi
1:30 PM66 °FPassing clouds.10 mph30%30.15 "Hg5 mi
1:00 PM64 °FPassing clouds.12 mph32%30.18 "Hg5 mi
12:30 PM64 °FPassing clouds.12 mph34%30.21 "Hg5 mi
12:00 PM64 °FPassing clouds.12 mph34%30.21 "Hg5 mi
11:30 AM63 °FPassing clouds.13 mph39%30.24 "Hg5 mi
11:00 AM61 °FPassing clouds.13 mph39%30.24 "Hg5 mi
10:30 AM59 °FPassing clouds.12 mph48%30.24 "Hg5 mi
10:00 AM57 °FPassing clouds.10 mph55%30.27 "Hg5 mi
9:30 AM54 °FPassing clouds.8 mph77%30.27 "Hg4 mi
9:00 AM54 °FPassing clouds.7 mph82%30.27 "Hg3 mi
8:00 AM46 °FPassing clouds.6 mph100%30.24 "Hg3 mi
7:30 AM46 °FClear.5 mph100%30.27 "Hg4 mi
7:00 AM48 °FClear.3 mph94%30.27 "Hg4 mi
6:30 AM48 °FClear.3 mph94%30.27 "Hg5 mi
6:00 AM48 °FClear.5 mph87%30.27 "Hg5 mi
5:30 AM48 °FClear.3 mph87%30.27 "Hg5 mi
5:00 AM48 °FClear.5 mph87%30.27 "Hg5 mi
4:30 AM48 °FClear.6 mph87%30.27 "Hg5 mi
4:00 AM50 °FClear.5 mph82%30.27 "Hg5 mi
1:00 AM48 °FClear.9 mph76%30.33 "Hg5 mi
12:00 AM50 °FClear.8 mph88%30.36 "Hg5 mi
11:30 PM
Sat, Feb 6
50 °FClear.6 mph82%30.36 "Hg5 mi
11:00 PM50 °FClear.7 mph88%30.36 "Hg5 mi
Weather by CustomWeather, © 2016

See weather overviewHow to use our weather pages